QPF
0.06 0.04 0.03 0.03 0.04 0.05 0.05 0.06 0.06 0.05 0.04 0.03 0.02 0.03 0.03 0.02 0.01 0.01 0.01 0.01 0.02 0.03 0.04 0.05 0.05 0.06 0.06 0.07 0.09 0.08 0.06 0.05 0.05 0.06 0.05 0.05 0.05 0.05 0.04 0.03 0.03 0.04 0.04
0.05 0.04 0.04 0.05 0.04 0.04 0.04 0.05 0.05 0.05 0.05 0.04 0.04 0.04 0.03 0.03 0.02 0.02 0.01 0.02 0.03 0.03 0.04 0.05 0.06 0.06 0.06 0.07 0.08 0.08 0.08 0.07 0.06 0.08 0.07 0.05 0.05 0.05 0.05 0.05 0.04 0.04 0.03
0.05 0.05 0.05 0.06 0.05 0.04 0.03 0.04 0.05 0.05 0.06 0.06 0.04 0.04 0.04 0.04 0.04 0.03 0.02 0.02 0.03 0.03 0.03 0.04 0.05 0.06 0.07 0.07 0.07 0.07 0.07 0.08 0.09 0.08 0.09 0.08 0.06 0.05 0.05 0.06 0.06 0.05 0.04
0.07 0.07 0.06 0.07 0.08 0.07 0.06 0.06 0.05 0.04 0.04 0.04 0.05 0.04 0.04 0.04 0.04 0.04 0.03 0.02 0.02 0.02 0.03 0.03 0.03 0.04 0.04 0.04 0.05 0.06 0.05 0.07 0.07 0.08 0.08 0.08 0.08 0.07 0.05 0.05 0.05 0.06 0.05
0.07 0.06 0.06 0.08 0.09 0.10 0.09 0.07 0.04 0.03 0.03 0.03 0.04 0.05 0.04 0.03 0.03 0.02 0.02 0.01 0.01 0.01 0.01 0.01 0.03 0.04 0.03 0.02 0.02 0.03 0.04 0.05 0.06 0.06 0.07 0.07 0.08 0.08 0.07 0.05 0.05 0.05 0.05
0.07 0.05 0.06 0.05 0.05 0.05 0.05 0.04 0.04 0.03 0.04 0.05 0.06 0.06 0.05 0.04 0.04 0.03 0.02 0.01 0.01 0.01 0.01 0.01 0.01 0.01 0.02 0.02 0.03 0.03 0.04 0.05 0.05 0.05 0.05 0.06 0.07 0.07 0.07 0.07 0.07 0.07 0.06
0.07 0.07 0.07 0.07 0.07 0.06 0.06 0.05 0.06 0.06 0.04 0.04 0.06 0.05 0.04 0.04 0.04 0.03 0.02 0.02 0.01 0.01 0.01 0.01 0.01 0.01 0.01 0.01 0.02 0.03 0.03 0.04 0.04 0.04 0.04 0.04 0.06 0.06 0.06 0.06 0.07 0.08 0.08
0.09 0.09 0.08 0.08 0.07 0.07 0.06 0.06 0.07 0.06 0.05 0.06 0.06 0.05 0.04 0.03 0.03 0.02 0.02 0.02 0.02 0.02 0.01 0.01 0.01 0.01 0.01 0.01 0.01 0.02 0.02 0.03 0.04 0.04 0.04 0.04 0.05 0.06 0.07 0.07 0.07 0.09 0.10
0.08 0.07 0.06 0.08 0.09 0.08 0.06 0.05 0.05 0.06 0.06 0.07 0.07 0.07 0.05 0.03 0.02 0.02 0.02 0.01 0.01 0.02 0.02 0.01 0.01 0.01 0.01 0.01 0.01 0.01 0.01 0.02 0.03 0.05 0.05 0.04 0.05 0.06 0.07 0.07 0.08 0.10 0.13
0.07 0.07 0.07 0.07 0.08 0.10 0.10 0.09 0.07 0.07 0.07 0.08 0.07 0.06 0.06 0.05 0.03 0.02 0.01 0.01 0.01 0.02 0.02 0.02 0.01 0.01 0.01 0.01 0.01 0.01 0.01 0.01 0.02 0.03 0.05 0.05 0.05 0.05 0.06 0.07 0.07 0.08 0.11
0.07 0.07 0.06 0.07 0.06 0.07 0.08 0.08 0.10 0.10 0.10 0.09 0.07 0.06 0.05 0.04 0.03 0.03 0.02 0.01 0.01 0.01 0.02 0.01 0.01 0.01 0.01 0.01 0.01 0.01 0.01 0.01 0.01 0.02 0.03 0.05 0.05 0.05 0.05 0.06 0.06 0.07 0.08
0.07 0.08 0.09 0.09 0.08 0.08 0.08 0.08 0.08 0.10 0.10 0.08 0.06 0.06 0.05 0.04 0.04 0.04 0.03 0.02 0.01 0.01 0.01 0.01 0.01 0.01 0.01 0.01 0.01 0.01 0.01 0.01 0.02 0.02 0.03 0.04 0.04 0.05 0.05 0.06 0.06 0.05 0.06
0.10 0.09 0.08 0.07 0.07 0.07 0.06 0.07 0.07 0.07 0.07 0.08 0.08 0.08 0.07 0.05 0.04 0.04 0.04 0.04 0.03 0.02 0.02 0.01 0.01 0.01 0.01 0.01 0.01 0.02 0.02 0.02 0.02 0.02 0.02 0.03 0.04 0.04 0.05 0.06 0.07 0.07 0.06
0.09 0.08 0.07 0.04 0.04 0.04 0.04 0.05 0.07 0.08 0.07 0.08 0.08 0.09 0.08 0.06 0.04 0.03 0.03 0.05 0.05 0.04 0.02 0.01 0.01 0.01 0.01 0.01 0.02 0.02 0.02 0.01 0.01 0.02 0.02 0.02 0.02 0.03 0.04 0.04 0.05 0.07 0.06
0.09 0.07 0.05 0.04 0.04 0.04 0.05 0.08 0.09 0.09 0.10 0.10 0.09 0.08 0.08 0.05 0.03 0.02 0.02 0.03 0.04 0.05 0.03 0.02 0.02 0.02 0.02 0.01 0.01 0.01 0.01 0.01 0.01 0.02 0.02 0.02 0.02 0.02 0.02 0.02 0.03 0.04 0.05
0.11 0.09 0.07 0.06 0.05 0.06 0.08 0.09 0.08 0.08 0.08 0.08 0.07 0.06 0.05 0.05 0.03 0.02 0.02 0.02 0.02 0.04 0.04 0.02 0.02 0.03 0.02 0.01 0.01 0.01 0.01 0.01 0.01 0.02 0.02 0.02 0.02 0.02 0.02 0.02 0.03 0.04 0.05
0.08 0.07 0.05 0.04 0.04 0.05 0.06 0.07 0.07 0.08 0.09 0.07 0.05 0.03 0.03 0.03 0.02 0.02 0.02 0.01 0.02 0.02 0.03 0.03 0.02 0.03 0.03 0.02 0.02 0.02 0.02 0.01 0.02 0.02 0.02 0.02 0.03 0.02 0.03 0.02 0.02 0.02 0.03
0.03 0.03 0.03 0.03 0.02 0.04 0.05 0.06 0.05 0.05 0.05 0.04 0.04 0.04 0.03 0.03 0.01 0.01 0.01 0.01 0.01 0.01 0.01 0.03 0.03 0.03 0.04 0.03 0.02 0.02 0.01 0.02 0.02 0.03 0.03 0.03 0.02 0.02 0.02 0.02 0.03 0.02 0.02
0.03 0.03 0.02 0.02 0.02 0.03 0.04 0.04 0.04 0.03 0.03 0.03 0.03 0.03 0.02 0.03 0.02 0.01 0.01 0.02 0.02 0.02 0.02 0.03 0.03 0.04 0.04 0.04 0.03 0.02 0.02 0.02 0.03 0.03 0.03 0.03 0.03 0.03 0.03 0.03 0.03 0.03 0.03
0.03 0.03 0.02 0.02 0.02 0.02 0.04 0.05 0.04 0.03 0.02 0.02 0.02 0.02 0.02 0.02 0.02 0.02 0.02 0.02 0.02 0.02 0.03 0.03 0.02 0.02 0.02 0.03 0.02 0.02 0.02 0.02 0.03 0.03 0.03 0.03 0.03 0.04 0.04 0.05 0.05 0.04 0.04
0.02 0.02 0.02 0.01 0.01 0.01 0.03 0.04 0.04 0.03 0.02 0.02 0.02 0.01 0.02 0.02 0.02 0.02 0.01 0.01 0.01 0.01 0.01 0.02 0.01 0.01 0.02 0.02 0.02 0.01 0.01 0.02 0.03 0.03 0.03 0.04 0.04 0.05 0.07 0.08 0.08 0.08 0.07
0.02 0.02 0.02 0.01 0.01 0.02 0.04 0.04 0.04 0.03 0.02 0.02 0.01 0.01 0.01 0.02 0.02 0.02 0.02 0.01 0.01 0.01 0.01 0.01 0.01 0.01 0.01 0.02 0.02 0.02 0.01 0.02 0.03 0.04 0.04 0.03 0.03 0.04 0.06 0.07 0.08 0.08 0.07
0.01 0.02 0.02 0.02 0.02 0.02 0.05 0.04 0.03 0.03 0.02 0.02 0.01 0.01 0.01 0.01 0.01 0.01 0.02 0.02 0.01 0.01 0.01 0.01 0.01 0.01 0.01 0.01 0.02 0.02 0.03 0.02 0.03 0.02 0.03 0.04 0.03 0.03 0.04 0.04 0.05 0.06 0.07
0.03 0.03 0.03 0.03 0.02 0.03 0.04 0.03 0.03 0.02 0.01 0.01 0.01 0.01 0.02 0.02 0.02 0.01 0.01 0.01 0.01 0.01 0.00 0.00 0.01 0.01 0.01 0.01 0.02 0.03 0.04 0.04 0.03 0.04 0.04 0.05 0.04 0.04 0.03 0.03 0.04 0.04 0.05
0.02 0.02 0.02 0.02 0.02 0.02 0.02 0.02 0.02 0.01 0.01 0.01 0.01 0.01 0.02 0.01 0.01 0.01 0.01 0.01 0.01 0.00 0.00 0.01 0.01 0.01 0.01 0.01 0.01 0.02 0.03 0.04 0.05 0.06 0.05 0.05 0.05 0.04 0.04 0.04 0.04 0.04 0.04
0.01 0.01 0.01 0.02 0.02 0.02 0.02 0.02 0.01 0.01 0.01 0.01 0.01 0.01 0.01 0.01 0.01 0.01 0.01 0.01 0.01 0.01 0.01 0.00 0.01 0.01 0.01 0.01 0.01 0.01 0.02 0.03 0.04 0.06 0.06 0.06 0.06 0.05 0.05 0.05 0.04 0.04 0.04
MSLP
1010.15 1010.49 1010.78 1011.03 1011.27 1011.50 1011.77 1012.07 1012.40 1012.75 1013.10 1013.42 1013.69 1013.89 1014.02 1014.08 1014.08 1014.05 1013.99 1013.94 1013.90 1013.90 1013.94 1014.02 1014.15 1014.33 1014.54 1014.77 1014.99 1015.20 1015.39 1015.54 1015.68 1015.80 1015.93 1016.07 1016.25 1016.45 1016.67 1016.91 1017.15 1017.39 1017.62
1010.10 1010.41 1010.67 1010.90 1011.12 1011.35 1011.61 1011.91 1012.24 1012.59 1012.94 1013.25 1013.51 1013.70 1013.81 1013.84 1013.81 1013.74 1013.66 1013.58 1013.54 1013.53 1013.58 1013.68 1013.81 1013.99 1014.17 1014.35 1014.52 1014.67 1014.79 1014.90 1015.00 1015.10 1015.22 1015.37 1015.55 1015.77 1016.00 1016.23 1016.47 1016.70 1016.92
1010.00 1010.30 1010.56 1010.79 1011.02 1011.26 1011.53 1011.83 1012.16 1012.51 1012.85 1013.16 1013.40 1013.57 1013.65 1013.65 1013.58 1013.48 1013.37 1013.27 1013.22 1013.21 1013.26 1013.35 1013.49 1013.64 1013.79 1013.93 1014.05 1014.13 1014.19 1014.25 1014.30 1014.38 1014.49 1014.63 1014.82 1015.04 1015.27 1015.51 1015.73 1015.95 1016.17
1009.83 1010.15 1010.43 1010.68 1010.93 1011.19 1011.48 1011.79 1012.13 1012.47 1012.79 1013.08 1013.30 1013.44 1013.49 1013.46 1013.37 1013.25 1013.11 1013.00 1012.93 1012.91 1012.95 1013.04 1013.16 1013.29 1013.41 1013.50 1013.56 1013.59 1013.60 1013.59 1013.61 1013.65 1013.74 1013.88 1014.06 1014.27 1014.50 1014.73 1014.95 1015.17 1015.37
1009.62 1009.95 1010.26 1010.55 1010.84 1011.13 1011.43 1011.75 1012.07 1012.39 1012.69 1012.95 1013.14 1013.25 1013.29 1013.25 1013.14 1013.01 1012.86 1012.74 1012.66 1012.63 1012.65 1012.72 1012.82 1012.92 1013.00 1013.05 1013.07 1013.05 1013.01 1012.96 1012.94 1012.95 1013.02 1013.14 1013.31 1013.50 1013.72 1013.94 1014.15 1014.35 1014.54
1009.38 1009.74 1010.08 1010.41 1010.73 1011.04 1011.35 1011.65 1011.96 1012.25 1012.51 1012.73 1012.89 1012.99 1013.01 1012.97 1012.88 1012.75 1012.61 1012.49 1012.39 1012.35 1012.35 1012.39 1012.46 1012.52 1012.57 1012.58 1012.56 1012.50 1012.43 1012.35 1012.30 1012.29 1012.33 1012.43 1012.57 1012.75 1012.94 1013.14 1013.33 1013.51 1013.69
1009.17 1009.55 1009.91 1010.27 1010.61 1010.93 1011.23 1011.51 1011.77 1012.01 1012.23 1012.41 1012.55 1012.65 1012.68 1012.66 1012.59 1012.48 1012.36 1012.24 1012.15 1012.08 1012.05 1012.06 1012.08 1012.11 1012.11 1012.09 1012.05 1011.97 1011.87 1011.78 1011.71 1011.68 1011.70 1011.77 1011.89 1012.03 1012.20 1012.37 1012.53 1012.68 1012.83
1009.04 1009.42 1009.80 1010.17 1010.51 1010.82 1011.09 1011.33 1011.55 1011.73 1011.91 1012.05 1012.18 1012.27 1012.32 1012.33 1012.31 1012.23 1012.14 1012.03 1011.93 1011.84 1011.77 1011.73 1011.70 1011.68 1011.65 1011.60 1011.53 1011.44 1011.33 1011.24 1011.16 1011.12 1011.12 1011.17 1011.25 1011.37 1011.50 1011.63 1011.76 1011.89 1012.01
1009.02 1009.40 1009.78 1010.15 1010.47 1010.76 1010.99 1011.18 1011.34 1011.47 1011.59 1011.71 1011.83 1011.93 1012.02 1012.07 1012.08 1012.05 1011.98 1011.88 1011.76 1011.64 1011.52 1011.42 1011.33 1011.25 1011.18 1011.10 1011.01 1010.91 1010.81 1010.73 1010.65 1010.61 1010.59 1010.62 1010.68 1010.76 1010.85 1010.95 1011.05 1011.14 1011.22
1009.15 1009.52 1009.89 1010.24 1010.55 1010.79 1010.98 1011.12 1011.22 1011.30 1011.39 1011.48 1011.59 1011.71 1011.83 1011.92 1011.98 1011.98 1011.92 1011.81 1011.67 1011.50 1011.32 1011.15 1010.99 1010.85 1010.73 1010.61 1010.51 1010.41 1010.31 1010.23 1010.16 1010.12 1010.10 1010.11 1010.15 1010.20 1010.27 1010.34 1010.41 1010.46 1010.51
1009.41 1009.79 1010.15 1010.47 1010.74 1010.95 1011.09 1011.17 1011.23 1011.27 1011.33 1011.41 1011.53 1011.66 1011.80 1011.93 1012.01 1012.03 1011.97 1011.85 1011.67 1011.44 1011.19 1010.94 1010.71 1010.50 1010.32 1010.16 1010.03 1009.92 1009.83 1009.75 1009.68 1009.64 1009.61 1009.62 1009.64 1009.68 1009.73 1009.77 1009.82 1009.85 1009.87
1009.82 1010.19 1010.53 1010.83 1011.06 1011.23 1011.33 1011.38 1011.40 1011.41 1011.45 1011.53 1011.64 1011.79 1011.95 1012.09 1012.18 1012.20 1012.13 1011.98 1011.75 1011.46 1011.13 1010.81 1010.49 1010.21 1009.97 1009.77 1009.61 1009.47 1009.37 1009.28 1009.21 1009.16 1009.13 1009.11 1009.13 1009.15 1009.19 1009.24 1009.28 1009.31 1009.31
1010.35 1010.71 1011.03 1011.30 1011.51 1011.64 1011.71 1011.73 1011.72 1011.72 1011.74 1011.81 1011.92 1012.07 1012.23 1012.37 1012.46 1012.47 1012.37 1012.18 1011.90 1011.55 1011.16 1010.76 1010.38 1010.03 1009.72 1009.47 1009.26 1009.08 1008.94 1008.82 1008.73 1008.65 1008.60 1008.58 1008.58 1008.60 1008.64 1008.69 1008.75 1008.78 1008.80
1010.99 1011.34 1011.64 1011.88 1012.05 1012.15 1012.19 1012.19 1012.16 1012.14 1012.15 1012.21 1012.32 1012.46 1012.61 1012.74 1012.81 1012.79 1012.67 1012.44 1012.11 1011.71 1011.27 1010.81 1010.37 1009.95 1009.59 1009.27 1009.00 1008.77 1008.57 1008.39 1008.25 1008.13 1008.04 1007.99 1007.97 1007.99 1008.03 1008.10 1008.18 1008.25 1008.29
1011.73 1012.06 1012.33 1012.53 1012.67 1012.74 1012.75 1012.72 1012.67 1012.64 1012.64 1012.69 1012.77 1012.89 1013.02 1013.12 1013.16 1013.11 1012.96 1012.71 1012.35 1011.93 1011.45 1010.95 1010.46 1010.00 1009.57 1009.19 1008.85 1008.53 1008.25 1008.00 1007.78 1007.59 1007.45 1007.35 1007.29 1007.30 1007.35 1007.43 1007.54 1007.65 1007.75
1012.56 1012.86 1013.09 1013.25 1013.35 1013.38 1013.36 1013.30 1013.23 1013.18 1013.15 1013.17 1013.23 1013.32 1013.41 1013.48 1013.49 1013.41 1013.24 1012.97 1012.60 1012.16 1011.67 1011.16 1010.65 1010.15 1009.67 1009.22 1008.79 1008.39 1008.01 1007.66 1007.33 1007.05 1006.82 1006.65 1006.55 1006.53 1006.57 1006.67 1006.81 1006.97 1007.12
1013.46 1013.71 1013.90 1014.02 1014.07 1014.06 1014.00 1013.91 1013.81 1013.71 1013.65 1013.63 1013.65 1013.70 1013.75 1013.77 1013.75 1013.65 1013.47 1013.19 1012.83 1012.40 1011.92 1011.41 1010.89 1010.37 1009.85 1009.34 1008.83 1008.33 1007.84 1007.37 1006.93 1006.53 1006.19 1005.93 1005.77 1005.70 1005.72 1005.82 1005.98 1006.18 1006.39
1014.38 1014.60 1014.74 1014.81 1014.82 1014.76 1014.65 1014.52 1014.37 1014.24 1014.13 1014.07 1014.03 1014.03 1014.02 1014.01 1013.95 1013.82 1013.63 1013.36 1013.01 1012.61 1012.15 1011.66 1011.15 1010.62 1010.07 1009.50 1008.92 1008.33 1007.73 1007.13 1006.57 1006.05 1005.60 1005.25 1005.00 1004.86 1004.84 1004.92 1005.08 1005.30 1005.56
1015.28 1015.45 1015.56 1015.59 1015.56 1015.46 1015.31 1015.12 1014.93 1014.74 1014.58 1014.45 1014.36 1014.29 1014.23 1014.17 1014.07 1013.92 1013.72 1013.45 1013.13 1012.75 1012.33 1011.86 1011.37 1010.83 1010.27 1009.66 1009.02 1008.35 1007.65 1006.95 1006.28 1005.65 1005.09 1004.63 1004.29 1004.08 1004.00 1004.03 1004.17 1004.39 1004.67
1016.09 1016.25 1016.33 1016.33 1016.26 1016.13 1015.93 1015.71 1015.46 1015.22 1015.00 1014.81 1014.65 1014.52 1014.40 1014.28 1014.14 1013.96 1013.74 1013.48 1013.17 1012.81 1012.41 1011.98 1011.50 1010.98 1010.41 1009.78 1009.10 1008.37 1007.61 1006.83 1006.07 1005.35 1004.70 1004.15 1003.72 1003.43 1003.27 1003.24 1003.33 1003.51 1003.77
1016.78 1016.93 1016.99 1016.99 1016.89 1016.73 1016.51 1016.25 1015.96 1015.67 1015.39 1015.14 1014.92 1014.72 1014.54 1014.35 1014.17 1013.95 1013.71 1013.43 1013.13 1012.78 1012.41 1011.99 1011.53 1011.02 1010.46 1009.83 1009.14 1008.39 1007.59 1006.77 1005.96 1005.18 1004.46 1003.85 1003.34 1002.97 1002.73 1002.62 1002.63 1002.75 1002.95
1017.33 1017.47 1017.55 1017.53 1017.44 1017.27 1017.03 1016.73 1016.41 1016.08 1015.75 1015.45 1015.17 1014.91 1014.66 1014.41 1014.17 1013.91 1013.63 1013.34 1013.02 1012.67 1012.30 1011.90 1011.46 1010.97 1010.42 1009.81 1009.13 1008.39 1007.59 1006.77 1005.94 1005.14 1004.40 1003.73 1003.17 1002.73 1002.42 1002.22 1002.14 1002.17 1002.29
1017.74 1017.90 1017.98 1017.98 1017.89 1017.71 1017.47 1017.16 1016.82 1016.46 1016.09 1015.74 1015.40 1015.09 1014.78 1014.48 1014.17 1013.87 1013.55 1013.21 1012.87 1012.51 1012.13 1011.74 1011.31 1010.84 1010.31 1009.73 1009.08 1008.37 1007.61 1006.82 1006.01 1005.23 1004.49 1003.81 1003.23 1002.74 1002.35 1002.08 1001.90 1001.83 1001.84
1018.07 1018.24 1018.33 1018.33 1018.25 1018.09 1017.84 1017.53 1017.18 1016.80 1016.41 1016.02 1015.65 1015.28 1014.92 1014.57 1014.21 1013.85 1013.47 1013.10 1012.72 1012.34 1011.95 1011.55 1011.12 1010.66 1010.16 1009.61 1009.00 1008.34 1007.63 1006.89 1006.14 1005.40 1004.69 1004.05 1003.46 1002.95 1002.52 1002.18 1001.92 1001.74 1001.65
1018.38 1018.54 1018.63 1018.65 1018.57 1018.41 1018.17 1017.87 1017.51 1017.13 1016.72 1016.31 1015.91 1015.50 1015.09 1014.69 1014.28 1013.87 1013.45 1013.03 1012.61 1012.19 1011.78 1011.36 1010.93 1010.48 1009.99 1009.47 1008.89 1008.28 1007.63 1006.95 1006.27 1005.59 1004.94 1004.34 1003.78 1003.29 1002.85 1002.47 1002.15 1001.89 1001.69
1018.71 1018.86 1018.95 1018.95 1018.88 1018.72 1018.48 1018.18 1017.83 1017.45 1017.04 1016.62 1016.19 1015.75 1015.31 1014.86 1014.41 1013.94 1013.48 1013.01 1012.55 1012.10 1011.66 1011.21 1010.77 1010.31 1009.82 1009.31 1008.75 1008.17 1007.57 1006.95 1006.33 1005.72 1005.15 1004.60 1004.11 1003.65 1003.23 1002.85 1002.51 1002.20 1001.94
Thickness
5712 5710 5708 5707 5707 5706 5705 5703 5702 5701 5701 5701 5701 5700 5699 5698 5698 5697 5697 5697 5697 5697 5697 5697 5696 5696 5696 5695 5695 5694 5694 5694 5694 5694 5694 5694 5694 5694 5695 5695 5695 5695 5695
5709 5706 5704 5703 5703 5702 5701 5700 5699 5697 5696 5696 5696 5696 5696 5695 5694 5693 5693 5693 5693 5693 5693 5693 5692 5692 5692 5692 5691 5691 5690 5690 5690 5691 5691 5691 5691 5691 5691 5692 5692 5692 5692
5705 5702 5701 5700 5699 5697 5696 5695 5694 5693 5692 5692 5691 5692 5692 5691 5691 5689 5688 5688 5688 5689 5689 5689 5688 5688 5688 5688 5687 5687 5686 5686 5686 5686 5687 5687 5687 5688 5688 5688 5688 5688 5689
5702 5700 5698 5697 5695 5693 5691 5690 5689 5687 5687 5686 5686 5686 5686 5685 5686 5685 5684 5684 5683 5683 5684 5684 5684 5683 5683 5683 5683 5682 5682 5682 5682 5683 5683 5683 5683 5684 5684 5685 5685 5685 5685
5699 5696 5695 5694 5692 5689 5687 5686 5684 5683 5682 5681 5681 5681 5681 5680 5680 5680 5680 5679 5679 5678 5678 5679 5679 5678 5678 5678 5678 5678 5678 5678 5678 5679 5679 5679 5679 5680 5680 5681 5681 5681 5682
5695 5693 5691 5690 5688 5685 5683 5682 5680 5678 5677 5676 5676 5676 5675 5676 5676 5676 5675 5675 5674 5673 5673 5673 5673 5673 5673 5673 5673 5673 5674 5674 5674 5674 5674 5674 5675 5675 5675 5676 5677 5678 5678
5690 5688 5687 5685 5683 5681 5679 5678 5675 5673 5672 5670 5668 5668 5669 5670 5671 5671 5670 5669 5668 5668 5667 5667 5666 5666 5666 5667 5667 5668 5668 5669 5669 5669 5669 5669 5670 5670 5670 5671 5672 5673 5674
5685 5684 5682 5680 5679 5677 5675 5673 5670 5668 5666 5665 5662 5660 5659 5661 5663 5666 5664 5663 5663 5662 5662 5661 5660 5660 5660 5660 5661 5662 5662 5663 5663 5663 5663 5664 5664 5664 5665 5666 5667 5668 5669
5681 5679 5678 5676 5674 5672 5670 5669 5666 5664 5661 5659 5658 5655 5652 5651 5653 5657 5657 5657 5656 5656 5656 5655 5654 5654 5654 5653 5654 5655 5656 5656 5656 5657 5657 5657 5658 5658 5659 5660 5660 5662 5663
5676 5675 5673 5671 5669 5667 5666 5665 5663 5660 5657 5654 5652 5650 5650 5649 5646 5646 5648 5649 5648 5648 5648 5648 5648 5647 5647 5647 5647 5648 5649 5649 5649 5649 5650 5650 5651 5651 5652 5653 5654 5655 5656
5670 5669 5668 5666 5664 5663 5662 5660 5659 5656 5653 5650 5647 5645 5643 5642 5640 5638 5639 5640 5640 5641 5641 5640 5640 5640 5640 5640 5640 5640 5641 5641 5641 5641 5642 5643 5643 5644 5645 5646 5647 5648 5649
5664 5664 5662 5661 5659 5658 5657 5656 5654 5652 5649 5647 5644 5640 5638 5636 5633 5632 5631 5631 5631 5633 5633 5633 5633 5632 5632 5632 5632 5632 5631 5632 5632 5632 5633 5634 5635 5637 5638 5639 5640 5641 5643
5658 5658 5657 5656 5655 5653 5652 5651 5649 5647 5645 5642 5639 5636 5633 5631 5629 5626 5624 5622 5622 5624 5624 5625 5624 5624 5623 5622 5622 5622 5622 5622 5622 5623 5624 5625 5627 5628 5630 5631 5632 5633 5635
5653 5653 5652 5650 5650 5649 5647 5645 5643 5642 5640 5637 5635 5631 5628 5626 5623 5620 5617 5614 5613 5614 5614 5615 5615 5614 5613 5612 5612 5612 5612 5612 5612 5613 5614 5616 5617 5619 5621 5623 5625 5626 5627
5649 5649 5648 5646 5645 5643 5642 5640 5638 5636 5634 5632 5629 5626 5623 5620 5617 5614 5611 5608 5604 5603 5605 5606 5605 5605 5603 5602 5601 5601 5601 5601 5602 5603 5604 5606 5608 5609 5612 5614 5616 5618 5619
5646 5645 5644 5642 5641 5639 5638 5636 5633 5632 5630 5627 5624 5621 5617 5614 5610 5607 5604 5601 5597 5594 5594 5596 5594 5594 5592 5592 5591 5590 5590 5591 5592 5592 5594 5596 5598 5600 5602 5604 5607 5609 5611
5642 5641 5639 5638 5636 5635 5633 5631 5629 5628 5625 5622 5619 5616 5612 5608 5604 5601 5598 5594 5590 5586 5584 5586 5584 5583 5581 5580 5579 5579 5579 5580 5581 5582 5583 5586 5588 5590 5592 5594 5597 5599 5602
5638 5637 5635 5633 5632 5630 5628 5626 5625 5623 5620 5617 5614 5610 5606 5602 5598 5594 5591 5587 5583 5579 5576 5575 5574 5572 5571 5569 5568 5568 5569 5570 5570 5572 5573 5575 5578 5580 5582 5584 5587 5590 5593
5635 5633 5631 5629 5627 5626 5624 5622 5620 5618 5614 5611 5608 5604 5600 5595 5591 5588 5585 5581 5577 5573 5568 5565 5563 5561 5559 5559 5557 5558 5559 5559 5560 5562 5564 5566 5567 5569 5572 5574 5577 5581 5584
5632 5630 5627 5625 5623 5622 5620 5618 5615 5612 5608 5604 5601 5597 5593 5589 5585 5582 5578 5574 5570 5565 5561 5556 5554 5551 5549 5547 5546 5547 5548 5549 5550 5552 5554 5556 5557 5559 5562 5565 5568 5572 5575
5630 5627 5624 5622 5621 5619 5617 5614 5610 5607 5602 5598 5594 5591 5587 5584 5580 5576 5572 5568 5563 5558 5554 5549 5546 5542 5540 5538 5537 5536 5537 5538 5541 5542 5543 5546 5548 5550 5552 5555 5559 5562 5566
5627 5624 5622 5620 5617 5616 5613 5609 5606 5601 5596 5592 5588 5584 5581 5577 5573 5569 5565 5561 5557 5552 5548 5543 5539 5535 5533 5530 5528 5528 5527 5528 5531 5532 5532 5536 5537 5540 5543 5546 5550 5553 5557
5625 5622 5619 5616 5613 5611 5609 5605 5601 5596 5591 5586 5581 5578 5575 5572 5567 5562 5559 5555 5551 5546 5542 5538 5534 5531 5528 5525 5522 5521 5520 5520 5522 5523 5524 5528 5529 5531 5534 5538 5541 5545 5548
5622 5619 5616 5613 5610 5608 5605 5601 5596 5591 5585 5581 5577 5572 5568 5564 5561 5556 5552 5549 5544 5541 5537 5534 5530 5527 5524 5521 5517 5516 5514 5514 5515 5516 5516 5519 5522 5523 5527 5530 5533 5537 5540
5620 5617 5614 5611 5608 5604 5601 5597 5592 5587 5581 5577 5572 5568 5563 5559 5556 5552 5548 5544 5540 5537 5535 5531 5527 5523 5520 5517 5514 5512 5510 5510 5512 5513 5511 5512 5515 5517 5520 5523 5526 5529 5532
5617 5614 5611 5608 5604 5601 5597 5593 5588 5583 5577 5572 5568 5564 5559 5555 5552 5547 5543 5539 5536 5534 5531 5528 5524 5521 5517 5514 5511 5508 5506 5505 5506 5507 5507 5506 5509 5511 5515 5517 5519 5521 5524